Location: Fort Worth, Tx
(32.7431°N, 97.3695°W)
Time: 03:06:20
(UTC-04:00)

Vanguard 3 - Pass Details

Date: 24 February 2024
Orbit: 510 x 3234 km, 33.3° (Epoch: 24 April)

Event Time Altitude Azimuth Distance (km) Brightness Sun altitude
Rises 19:17:37 0° 206° (SSW) 6,050 12.2 0.2°
Reaches altitude 10° 19:21:46 10° 198° (SSW) 5,366 11.8 -0.7°
Maximum altitude 19:36:39 36° 139° (SE) 4,285 10.6 -3.8°
Drops below altitude 10° 19:53:12 10° 82° (E) 6,018 10.9 -7.2°
Enters shadow 19:54:15 - 80° (E) 6,188 10.9 -7.5°
